Regional Weather Roundup
Issued by NWS Upton, NY

Current Version | Previous Version | Graphics & Text | Print | Product List | Glossary Off
Versions: 1 2 3 4 5 6 7 8 9 10 11 12 13 14 15 16 17 18 19 20 21 22 23 24 25 26 27 28 29 30 31 32 33 34 35 36 37 38 39 40 41 42 43 44 45 46 47 48 49 50

000
ASUS41 KOKX 271205
RWROKX

REGIONAL WEATHER ROUNDUP
NATIONAL WEATHER SERVICE NEW YORK NY
700 AM EST FRI FEB 27 2015

NOTE: "FAIR" INDICATES FEW OR NO CLOUDS BELOW 12,000 FEET WITH NO
SIGNIFICANT WEATHER AND/OR OBSTRUCTIONS TO VISIBILITY.

NYZ071-072-176-178-NJZ106-104-271300-
NEW YORK CITY METRO AREA


CITY           SKY/WX    TMP DP  RH WIND       PRES   REMARKS
CENTRAL PARK   CLOUDY    18   4  54 VRB5      30.34R WCI  11
LAGUARDIA APRT CLOUDY    19   6  57 N10       30.33R WCI   7
KENNEDY INTL   MOCLDY    20   5  52 N9        30.34R WCI   9
NEWARK/LIBERTY CLOUDY    18   7  62 N10       30.34R WCI   6
BRNX BOT. GARD   N/A    N/A N/A N/A N6        30.35R
TETERBORO      CLOUDY    17   5  59 N7        30.33R WCI   8
$$

NYZ177-179-078>081-271300-
LONG ISLAND NEW YORK

CITY           SKY/WX    TMP DP  RH WIND       PRES   REMARKS
FARMINGDALE    PTCLDY    18   6  59 N7        30.32R WCI   9
ISLIP          MOCLDY    19   7  59 N10       30.30R WCI   7
SHIRLEY        CLEAR     18   9  68 N8        30.32R WCI   8
WESTHAMPTON    PTCLDY     6   2  83 NW5       30.31R WCI  -3
MONTAUK POINT    N/A     23   7  50 N7        30.30R WCI  15
$$

NYZ052-065-067-271300-
HUDSON VALLEY

CITY           SKY/WX    TMP DP  RH WIND       PRES   REMARKS
WHITE PLAINS   MOCLDY    12   2  64 NW8       30.29R WCI   0
NEWBURGH       NOT AVBL
MONTGOMERY     MOCLDY    -1  -6  79 CALM      30.31R
POUGHKEEPSIE   CLEAR      2  -3  80 CALM      30.34R HAZE
ALBANY         PTCLDY     5  -5  63 NW8       30.35R WCI  -8
$$

NJZ001-105-106-008-010-013-015-019>022-104-271300-
NEW JERSEY

CITY           SKY/WX    TMP DP  RH WIND       PRES   REMARKS
NEWARK/LIBERTY CLOUDY    18   7  62 N10       30.34R WCI   6
TETERBORO      CLOUDY    17   5  59 N7        30.33R WCI   8
CALDWELL       MOCLDY    15   5  64 CALM      30.34R
MORRISTOWN     CLOUDY    16   7  67 N3        30.33R
SOMERVILLE     CLOUDY    17   4  56 NW7       30.32R WCI   8
SUSSEX         MOCLDY     9   1  70 VRB3      30.31R
ANDOVER          N/A      9   2  73 N5        30.31R WCI   1
TRENTON        CLOUDY    19   7  59 N9        30.32R WCI   8
MILLVILLE      MOCLDY    22  13  68 N7        30.30R WCI  13
ATLANTIC CITY  PTCLDY    18  12  77 N7        30.30R WCI   9
WRIGHTSTOWN    CLOUDY    19  12  73 N10       30.30R WCI   8
TOMS RIVER     CLOUDY    19  12  73 N7        30.31S WCI  10
BELMAR         CLOUDY    19  10  68 NW7       30.30R WCI  10
$$

PAZ047>061-062-071-271300-
EASTERN PENNSYLVANIA

CITY           SKY/WX    TMP DP  RH WIND       PRES   REMARKS
PHILADELPHIA   LGT SNOW  23  16  74 N10       30.34R WCI  12
ALLENTOWN      CLOUDY    15   3  59 NW5       30.33R WCI   8
SCRANTON       PTCLDY     8   0  69 CALM      30.30R
$$

CTZ002-004>006-009-010-012-RIZ004-006-007-MAZ004-011-015-271300-
SOUTHERN NEW ENGLAND
 IN CT

CITY           SKY/WX    TMP DP  RH WIND       PRES   REMARKS
BRADLEY INTL   PTCLDY    13   1  59 N6        30.29R WCI   4
HARTFORD       CLEAR     13   3  64 N5        30.32R WCI   5
DANBURY        PTCLDY     1  -4  79 CALM      30.31R
WTRBRY/OXFORD  PTCLDY     7  -8  51 N7        30.26R WCI  -5
BRIDGEPORT     MOCLDY    16   5  62 N3        30.32R
MERIDEN        PTCLDY    12   2  64 NW5       30.32R WCI   4
NEW HAVEN      MOCLDY    16   4  59 N8        30.31R WCI   5
CHESTER        FAIR      14   5  67 N7        30.27R WCI   4
GROTON         CLEAR     11   3  70 N5        30.30R WCI   3
WILLIMANTIC    CLEAR      3  -3  76 CALM      30.30R

 IN RI

CITY           SKY/WX    TMP DP  RH WIND       PRES   REMARKS
PROVIDENCE     PTCLDY    10   3  73 W5        30.29R WCI   2
BLOCK ISLAND   CLEAR     19   7  58 N6        30.26R WCI  11
WESTERLY       PTCLDY     7   2  80 CALM      30.29R

 IN MA

CITY           SKY/WX    TMP DP  RH WIND       PRES   REMARKS
BOSTON         PTCLDY    15  -1  49 NW10G18   30.29R WCI   2
WORCESTER      CLEAR      9  -4  55 NW8       30.20R WCI  -3
WESTFIELD      CLEAR     12   0  58 NW10      30.28R WCI  -1
PROVINCETOWN   CLEAR     21   7  53 NW12      30.26R WCI   9
NANTUCKET      CLEAR     21  10  62 NW10      30.26R WCI  10
$$

ANZ330-335-338-340-345-350-353-355-271300-
COASTAL MARINE OBSERVATIONS


STATION/POSITION TIME  SKY/WX   TEMP    WIND        PRES    VSBY  WAVE
                                AIR SEA DIR/SP/G                  HT/PER
                 (UTC)          (F)     (DEG/KT/KT) (MB)    (MI)  (FT/S)
NY HARB ENTRANCE 1200            24 38  360/ 14/ 17 1026.4          4/11
4S FIRE IS       1100               32                N/A           4/11
20S FIRE ISLAND  1100               36              1025.1          5/11
23SW MTP         1200                                 N/A           5/11
HUDSON CANYON    NOT AVBL
EXECUTION ROCKS  NOT AVBL
WESTERN LI SOUND NOT AVBL
CENTRAL LI SOUND NOT AVBL
EASTERN LI SOUND NOT AVBL
ROBBINS REEF     1200            18     340/  9/ 11 1025.9
$$


>>>>>>>>>>>>>>>>>>>>>>>>>>>> KEY <<<<<<<<<<<<<<<<<<<<<<<<<<<
>                                                          <
>     SKY/WX - SKY CONDITION/PRESENT WEATHER               <
>     TMP    - TEMPERATURE IN FAHRENHEIT                   <
>     DP     - DEWPOINT IN FAHRENHEIT                      <
>     RH     - RELATIVE HUMIDITY IN PERCENT                <
>     WIND   - DIRECTION AND SPEED IN MPH                  <
>     PRES   - MEAN SEA LEVEL PRESSURE IN INCHES OF HG     <
>     WCI    - WIND CHILL INDEX                            <
>     VSB    - VISIBILITY IN MILES                         <
>     HX     - HEAT INDEX                                  <
>     TC     - TEMPERATURE IN CELSIUS                      <
>     VRB    - VARIABLE WIND DIRECTION                     <
>                                                          <
>>>>>>>>>>>>>>>>>>>>>>>>>>>> KEY <<<<<<<<<<<<<<<<<<<<<<<<<<<




USA.gov is the U.S. government's official web portal to all federal, state and local government web resources and services.